Home   Weather   Youngstown   Past weeks

Flag for USA Past Weather in Youngstown, Ohio, USA — Yesterday and Last 2 Weeks

Now
71 °F

Cloudy.


Feels Like: 77 °F
Forecast: 61 / 85 °F
Wind: 6 mph from South

Location: Youngstown-Warren Regional Airport

Current Time: Jun 28, 2017 at 8:33:09 pm

Latest Report: Jun 28, 2017 at 7:51 pm


Visibility: 10 mi

Pressure: 30.06 "Hg

Humidity: 51%

Dew Point: 52 °F

Location of YoungstownLocation

Past Weather in Youngstown — Graph

°F

Youngstown Temperature Yesterday

Maximum temperature yesterday: 67 °F (at 4:51 pm)
Minimum temperature yesterday: 50 °F (at 11:51 pm)
Average temperature yesterday: 58 °F

High & Low Weather Summary for the Past Weeks

 TemperatureHumidityPressure
High88 °F (Jun 16, 3:51 pm)96% (Jun 19, 2:51 am)30.17 "Hg (Jun 19, 2:51 am)
Low50 °F (Jun 27, 11:51 pm)32% (Jun 25, 3:51 pm)29.62 "Hg (Jun 23, 3:51 pm)
Average70 °F72%29.90 "Hg
* Reported Jun 13 6:51 pm — Jun 28 6:51 pm, Youngstown. Weather by CustomWeather, © 2017

Note: Actual official high and low records may vary slightly from our data, if they occured in-between our weather recording intervals... More about our weather records

Advertising

Youngstown Weather History for the Previous 24 Hours

Scroll right to see more
 ConditionsComfort  
Time TempWeatherWind HumidityBarometerVisibility
6:51 pm
Wed, Jun 28
73 °FMostly cloudy.7 mph46%30.06 "Hg10 mi
5:51 pm73 °FMostly cloudy.8 mph44%30.08 "Hg10 mi
4:51 pm73 °FCloudy.12 mph43%30.11 "Hg10 mi
3:51 pm74 °FMore clouds than sun.10 mph41%30.11 "Hg10 mi
2:51 pm73 °FMore clouds than sun.13 mph43%30.14 "Hg10 mi
1:51 pm74 °FOvercast.13 mph41%30.13 "Hg10 mi
12:51 pm73 °FMore clouds than sun.12 mph41%30.15 "Hg10 mi
11:51 am72 °FBroken clouds.12 mph41%30.17 "Hg10 mi
10:51 am70 °FScattered clouds.12 mph46%30.16 "Hg10 mi
9:51 am68 °FSunny.10 mph51%30.17 "Hg10 mi
8:51 am64 °FSunny.8 mph61%30.17 "Hg10 mi
7:51 am58 °FPassing clouds.7 mph67%30.14 "Hg10 mi
6:51 am54 °FPassing clouds.7 mph74%30.13 "Hg10 mi
5:51 am51 °FPassing clouds.6 mph77%30.14 "Hg10 mi
4:51 am52 °FPassing clouds.6 mph75%30.11 "Hg10 mi
3:51 am54 °FPassing clouds.7 mph72%30.10 "Hg10 mi
2:51 am52 °FPassing clouds.5 mph75%30.11 "Hg10 mi
1:51 am54 °FPassing clouds.6 mph72%30.10 "Hg10 mi
12:51 am52 °FPassing clouds.6 mph77%30.11 "Hg10 mi
11:51 pm
Tue, Jun 27
50 °FPassing clouds.5 mph83%30.12 "Hg10 mi
10:51 pm52 °FPassing clouds.3 mph77%30.11 "Hg10 mi
9:51 pm55 °FPassing clouds.No wind67%30.09 "Hg10 mi
8:51 pm60 °FPassing clouds.No wind56%30.07 "Hg10 mi
Weather by CustomWeather, © 2017

See weather overviewHow to use our weather pages